遥感四十三号02组-A (YAOGAN-43 02A)

导读 | 豆包AI

YAOGAN-43 02A是中国于2024年9月3日,在西昌卫星发射中心通过长征四号乙运载火箭发射入轨的遥感卫星,隶属于遥感四十三号02组卫星任务。该卫星主要用于开展低轨星座系统新技术试验,推动我国低轨卫星星座技术发展,服务后续遥感观测等领域应用,此次发射也是长征系列运载火箭第533次飞行。

基本信息
目录编号:
60945
目录名称:
YAOGAN-43 02A
国际标识:
2024-156A
轨道中心:
EARTH
卫星名称:
遥感四十三号02组-A (YAOGAN-43 02A)
卫星全名:
遥感四十三号02组-A (YAOGAN-43 02A)
卫星状态:
在轨 (已飞行579 天)
发射日期:
2024-09-03 UTC
国别 :
中国 (CN)
星等 :
--
轨道信息
数据来源 国际轨道数据
星历时间: 2026-04-05T12:33:57+0800
12小时前
查看轨道信息
半长轴: 6812.565km
偏心率: 0.000302
轨道倾角: 34.995°
近地点辐角 336.395°
升交点赤经 268.663°
平近点角 23.663°
近地点: 432.37km
远地点: 436.486km
周期: 93.266分钟
每日圈数: 15.439629
详细信息
运营商:
中国空间技术研究院
运营商所在国:
中国
制造商(研发单位):
中国空间技术研究院
制造商所在国:
中国
使用方式:
暂无
卫星简介
遥感四十三号卫星组分别由航天科技集团五院和八院等抓总研制,主要用于开展低轨星座系统新技术试验。
2D轨道图
3D轨道图
轨道高度分析图
轨道倾角分析图
轨道综合分析图
查看轨道综合分析图